[[{"header":{"parameterUnit":"m.s-1","parameterCategory":1,"la1":30.2992,"la2":30.254,"lo1":-89.0895,"lo2":-89.0443,"dy":0.0025,"dx":0.0025,"nx":19,"ny":19,"refTime":"2026-05-14T09:00:00:Z","depth":0,"parameterNumber":2,"parameterNumberName":"U-component_of_WINDS"},"data":[0,0,0,2.1069,2.1071,2.1162,2.1162,2.1285,2.1286,0,0,0,0,0,0,0,0,0,0,0,2.1046,2.1047,2.1069,2.1071,2.1162,2.1162,2.1285,2.1286,0,0,0,0,0,0,0,0,0,0,0,2.1046,2.1047,2.1048,2.1071,2.1161,2.1162,2.1285,2.1214,0,0,0,0,0,0,0,0,0,0,2.1125,2.1107,2.1047,2.1048,2.1072,2.1161,2.1162,2.121,2.1218,2.1247,0,2.1273,0,2.1282,2.1295,2.1295,0,0,0,2.1068,2.1101,2.1121,2.1048,2.1073,2.1161,2.112,2.1215,2.1224,2.1258,2.1275,2.128,2.1284,2.1296,2.1296,2.1472,2.1473,0,0,2.1063,2.1065,2.1115,2.1128,2.1113,2.1117,2.1123,2.122,2.1239,2.1276,2.1282,2.1286,2.1297,2.1298,2.1471,2.1472,0,0,0,2.1051,2.1061,2.1079,2.1123,2.1138,2.112,2.1126,2.1235,2.1241,2.1284,2.1287,2.1297,2.1299,2.147,2.1471,2.152,0,0,0,2.1048,2.1054,2.1077,2.1079,2.1137,2.1188,2.1139,2.1234,2.1245,2.1287,2.1297,2.13,2.1469,2.1471,2.1517,2.1543,0,0,0,2.1039,2.1053,2.1067,2.1079,2.1118,2.1186,2.1197,2.1236,2.1247,2.1296,2.1301,2.1468,2.147,2.1513,2.1538,2.159,0,0,0,2.103,2.1109,2.1068,2.1158,2.1117,2.1215,2.1197,2.127,2.1317,2.1298,2.1469,2.1471,2.1512,2.1534,2.1586,2.1634,2.1654,0,0,2.1131,2.1121,2.1174,2.114,2.1246,2.1201,2.1314,2.1356,2.136,2.1434,2.1439,2.1518,2.1537,2.1589,2.1765,2.1781,0,0,0,2.1207,2.1245,2.1273,2.1317,2.1351,2.1382,2.1407,2.1422,2.1486,2.1398,2.155,2.1562,2.1592,2.1615,2.1629,2.1655,2.1482,2.1482,2.1481,2.1352,2.1352,2.144,2.1451,2.1495,2.1519,2.1555,2.158,2.1567,2.1603,2.1625,2.1732,2.1759,2.1769,2.1796,2.165,2.1651,2.1651,2.1651,2.15,2.1554,2.1536,2.1614,2.1614,2.168,2.1707,2.1696,2.1758,2.1715,2.1742,2.1696,2.1786,2.181,2.1655,2.1654,2.1653,2.1653,2.1653,2.1595,2.1621,2.1639,2.1704,2.1754,2.1762,2.1823,2.182,2.1819,2.1845,2.1869,2.1868,2.1867,2.1856,2.1857,2.1857,2.1858,2.1858,2.1858,2.1688,2.1706,2.1757,2.1799,2.1828,2.1865,2.1891,2.1919,2.195,2.1944,2.1944,2.1928,2.1795,2.1762,2.1864,2.1863,2.1862,2.1861,2.1861,2.1838,2.1804,2.1883,2.1911,2.1961,2.2012,2.2008,2.2066,2.2089,2.2119,2.2097,2.1999,2.199,2.1979,2.1952,2.2097,2.2097,2.2097,2.2097,2.1919,2.1914,2.1994,2.204,2.2085,2.2089,2.2179,2.22,2.2216,2.2231,2.221,2.2173,2.2162,2.2159,2.2144,2.2119,2.2303,2.2303,2.2303,2.2012,2.2011,2.2088,2.2103,2.2142,2.2176,2.226,2.2314,2.2326,2.2312,2.2242,2.2234,2.2174,2.2155,2.2139,2.2117,2.207,0,0]},{"header":{"parameterUnit":"m.s-1","parameterCategory":1,"la1":30.2992,"la2":30.254,"lo1":-89.0895,"lo2":-89.0443,"dy":0.0025,"dx":0.0025,"nx":19,"ny":19,"refTime":"2026-05-14T09:00:00:Z","depth":0,"parameterNumber":3,"parameterNumberName":"V-component_of_WINDS"},"data":[0,0,0,-2.2874,-2.2877,-2.2995,-2.2996,-2.3147,-2.3149,0,0,0,0,0,0,0,0,0,0,0,-2.2838,-2.2839,-2.2874,-2.2877,-2.2995,-2.2996,-2.3147,-2.3149,0,0,0,0,0,0,0,0,0,0,0,-2.2837,-2.2839,-2.284,-2.2877,-2.2995,-2.2996,-2.3147,-2.3058,0,0,0,0,0,0,0,0,0,0,-2.2943,-2.2908,-2.2838,-2.284,-2.2878,-2.2995,-2.2996,-2.3053,-2.3063,-2.3093,0,-2.3119,0,-2.3136,-2.3159,-2.3159,0,0,0,-2.2878,-2.2899,-2.2932,-2.284,-2.2879,-2.2995,-2.2942,-2.3059,-2.307,-2.3106,-2.3121,-2.3127,-2.3139,-2.316,-2.3161,-2.3328,-2.3328,0,0,-2.2872,-2.2859,-2.2925,-2.294,-2.292,-2.2938,-2.2946,-2.3066,-2.3081,-2.3121,-2.313,-2.3141,-2.3161,-2.3162,-2.3327,-2.3328,0,0,0,-2.2852,-2.2854,-2.2884,-2.2933,-2.2955,-2.2942,-2.295,-2.3076,-2.3087,-2.3132,-2.3143,-2.3162,-2.3163,-2.3326,-2.3327,-2.3351,0,0,0,-2.2848,-2.2843,-2.2881,-2.2875,-2.2952,-2.3016,-2.2958,-2.3078,-2.3092,-2.3142,-2.3162,-2.3165,-2.3326,-2.3327,-2.3348,-2.3364,0,0,0,-2.2831,-2.2841,-2.2857,-2.2874,-2.2924,-2.3015,-2.3033,-2.3082,-2.3099,-2.3159,-2.3165,-2.3325,-2.3327,-2.3346,-2.336,-2.3404,0,0,0,-2.2809,-2.2877,-2.2858,-2.2938,-2.2923,-2.3028,-2.3032,-2.3111,-2.3165,-2.3162,-2.3326,-2.3327,-2.3345,-2.3358,-2.3401,-2.3438,-2.3452,0,0,-2.2887,-2.2886,-2.2934,-2.2921,-2.3025,-2.3011,-2.312,-2.3182,-2.32,-2.3285,-2.3289,-2.3349,-2.336,-2.3403,-2.3535,-2.3546,0,0,0,-2.2955,-2.2989,-2.302,-2.3071,-2.312,-2.3163,-2.321,-2.3234,-2.3306,-2.3241,-2.3377,-2.3384,-2.341,-2.3428,-2.3437,-2.3461,-2.3335,-2.3335,-2.3335,-2.3048,-2.3067,-2.3148,-2.3181,-2.3231,-2.3279,-2.3321,-2.3361,-2.3366,-2.3398,-2.3423,-2.3501,-2.3521,-2.3529,-2.3553,-2.3444,-2.3444,-2.3444,-2.3445,-2.3165,-2.3217,-2.3222,-2.3302,-2.3322,-2.3391,-2.3441,-2.3442,-2.3509,-2.3483,-2.3507,-2.3477,-2.354,-2.3562,-2.3446,-2.3446,-2.3446,-2.3446,-2.3446,-2.3227,-2.3256,-2.3283,-2.3358,-2.3415,-2.3447,-2.3512,-2.3528,-2.3544,-2.3568,-2.3596,-2.3596,-2.3597,-2.358,-2.358,-2.3581,-2.3581,-2.3581,-2.3581,-2.3282,-2.3311,-2.3363,-2.3421,-2.3456,-2.3505,-2.3554,-2.359,-2.3634,-2.3641,-2.3641,-2.3643,-2.3542,-2.3517,-2.3585,-2.3585,-2.3584,-2.3584,-2.3583,-2.3393,-2.337,-2.345,-2.3485,-2.3555,-2.3611,-2.3631,-2.3702,-2.3734,-2.3765,-2.3763,-2.3686,-2.3685,-2.3678,-2.3657,-2.3758,-2.3758,-2.3758,-2.3758,-2.3445,-2.3447,-2.3532,-2.3587,-2.3643,-2.367,-2.3761,-2.3801,-2.3839,-2.386,-2.3848,-2.3821,-2.3813,-2.3818,-2.3807,-2.3788,-2.392,-2.392,-2.392,-2.3514,-2.3522,-2.3595,-2.3631,-2.3687,-2.3736,-2.3822,-2.3886,-2.3925,-2.3927,-2.3877,-2.387,-2.3827,-2.3813,-2.3813,-2.3796,-2.3761,0,0]}]]